Location: Passau
(48.5830°N, 13.4830°E)
Time: 19:59:37
(UTC+02:00)

Vanguard 3 - Pass Details

Date: 18 May 2024
Orbit: 509 x 3231 km, 33.3° (Epoch: 15 June)

Event Time Altitude Azimuth Distance (km) Brightness Sun altitude
Rises 03:48:01 0° 274° (W) 6,856 11.5 -12.5°
Reaches altitude 10° 03:54:24 10° 260° (W) 6,064 11.1 -11.8°
Maximum altitude 04:06:02 20° 223° (SW) 5,323 10.6 -10.5°
Drops below altitude 10° 04:17:16 10° 185° (S) 5,767 11.0 -9.2°
Sets 04:23:13 0° 170° (S) 6,422 11.4 -8.5°
